Time,TemperatureF,DewpointF,PressureIn,WindDirection,WindDirectionDegrees,WindSpeedMPH,WindSpeedGustMPH,Humidity,HourlyPrecipIn,Conditions,Clouds,dailyrainin,SoftwareType,DateUTC
2013-01-25 00:00:00,12.4,-1.1,30.28,NW,321,4.6,6.9,54,0.00,CLR,,0.00,WeatherDisplay:10.37,2013-01-25 05:00:00,
2013-01-25 00:01:00,12.4,-1.5,30.28,West,267,3.2,5.8,53,0.00,CLR,,0.00,WeatherDisplay:10.37,2013-01-25 05:01:00,
2013-01-25 00:02:00,12.4,-1.1,30.28,NW,320,2.7,5.0,54,0.00,CLR,,0.00,WeatherDisplay:10.37,2013-01-25 05:02:00,
2013-01-25 00:04:00,12.4,-1.1,30.28,WNW,289,3.4,10.4,54,0.00,CLR,,0.00,WeatherDisplay:10.37,2013-01-25 05:04:00,
2013-01-25 00:09:00,12.4,-1.1,30.28,NW,317,3.1,7.0,54,0.00,CLR,,0.00,WeatherDisplay:10.37,2013-01-25 05:09:00,
2013-01-25 00:14:00,12.4,-1.1,30.28,WNW,298,8.2,11.5,54,0.00,CLR,,0.00,WeatherDisplay:10.37,2013-01-25 05:14:00,
2013-01-25 00:19:00,12.4,-0.7,30.28,WNW,282,2.9,9.2,55,0.00,CLR,,0.00,WeatherDisplay:10.37,2013-01-25 05:19:00,
2013-01-25 00:24:00,12.4,-1.1,30.28,NW,315,2.5,4.6,54,0.00,CLR,,0.00,WeatherDisplay:10.37,2013-01-25 05:24:00,
2013-01-25 00:29:00,12.4,-0.7,30.28,West,281,0.5,2.3,55,0.00,CLR,,0.00,WeatherDisplay:10.37,2013-01-25 05:29:00,
2013-01-25 00:34:00,12.3,-0.8,30.28,West,281,1.0,2.3,55,0.00,CLR,,0.00,WeatherDisplay:10.37,2013-01-25 05:34:00,
2013-01-25 00:39:00,12.1,-1.0,30.28,West,281,0.9,2.3,55,0.00,CLR,,0.00,WeatherDisplay:10.37,2013-01-25 05:39:00,
2013-01-25 00:45:00,12.1,-0.6,30.28,NW,318,1.7,3.5,56,0.00,CLR,,0.00,WeatherDisplay:10.37,2013-01-25 05:45:00,
2013-01-25 00:50:00,11.9,-0.8,30.28,NNW,339,0.3,2.3,56,0.00,CLR,,0.00,WeatherDisplay:10.37,2013-01-25 05:50:00,
2013-01-25 00:55:00,11.4,-0.9,30.29,NNW,339,0.1,1.1,57,0.00,CLR,,0.00,WeatherDisplay:10.37,2013-01-25 05:55:00,
2013-01-25 01:00:00,10.9,-0.6,30.29,NNW,339,0.0,0.0,59,0.00,CLR,,0.00,WeatherDisplay:10.37,2013-01-25 06:00:00,
2013-01-25 01:05:00,10.4,-1.1,30.28,NNW,339,0.0,1.1,59,0.00,CLR,,0.00,WeatherDisplay:10.37,2013-01-25 06:05:00,
2013-01-25 01:11:00,10.2,-0.9,30.28,NNW,339,0.0,0.0,60,0.00,CLR,,0.00,WeatherDisplay:10.37,2013-01-25 06:11:00,
2013-01-25 01:16:00,10.0,-1.1,30.28,NNW,339,0.3,2.3,60,0.00,CLR,,0.00,WeatherDisplay:10.37,2013-01-25 06:16:00,
2013-01-25 01:21:00,9.9,-1.2,30.28,NNW,339,0.0,0.0,60,0.00,CLR,,0.00,WeatherDisplay:10.37,2013-01-25 06:21:00,
2013-01-25 01:26:00,9.9,-0.9,30.28,NW,308,1.4,3.5,61,0.00,CLR,,0.00,WeatherDisplay:10.37,2013-01-25 06:26:00,
2013-01-25 01:31:00,9.9,-0.5,30.28,NW,308,0.5,2.3,62,0.00,CLR,,0.00,WeatherDisplay:10.37,2013-01-25 06:31:00,
2013-01-25 01:36:00,9.9,-0.5,30.28,NW,308,0.0,0.0,62,0.00,CLR,,0.00,WeatherDisplay:10.37,2013-01-25 06:36:00,
2013-01-25 01:42:00,9.7,-0.4,30.28,NW,308,0.4,1.1,63,0.00,CLR,,0.00,WeatherDisplay:10.37,2013-01-25 06:42:00,
2013-01-25 01:47:00,9.3,-1.1,30.29,NW,308,1.2,2.3,62,0.00,CLR,,0.00,WeatherDisplay:10.37,2013-01-25 06:47:00,
2013-01-25 01:52:00,9.2,0.1,30.28,NW,308,1.5,2.3,66,0.00,CLR,,0.00,WeatherDisplay:10.37,2013-01-25 06:52:00,
2013-01-25 01:57:00,9.3,0.2,30.28,West,259,0.1,2.3,66,0.00,CLR,,0.00,WeatherDisplay:10.37,2013-01-25 06:57:00,
2013-01-25 02:03:00,9.7,0.0,30.29,West,260,1.1,3.5,64,0.00,CLR,,0.00,WeatherDisplay:10.37,2013-01-25 07:03:00,
2013-01-25 02:08:00,10.0,-0.4,30.29,WNW,286,1.4,3.5,62,0.00,CLR,,0.00,WeatherDisplay:10.37,2013-01-25 07:08:00,
2013-01-25 02:13:00,10.4,-0.8,30.29,NW,306,2.9,6.9,60,0.00,CLR,,0.00,WeatherDisplay:10.37,2013-01-25 07:13:00,
2013-01-25 02:18:00,10.5,-0.7,30.30,WSW,252,1.9,3.5,60,0.00,CLR,,0.00,WeatherDisplay:10.37,2013-01-25 07:18:00,
2013-01-25 02:24:00,10.7,-0.5,30.30,WSW,252,0.9,2.3,60,0.00,CLR,,0.00,WeatherDisplay:10.37,2013-01-25 07:24:00,
2013-01-25 02:29:00,10.5,-0.7,30.30,WSW,247,1.1,3.5,60,0.00,CLR,,0.00,WeatherDisplay:10.37,2013-01-25 07:29:00,
2013-01-25 02:34:00,10.5,-0.7,30.30,WSW,254,3.6,5.8,60,0.00,CLR,,0.00,WeatherDisplay:10.37,2013-01-25 07:34:00,
2013-01-25 02:39:00,10.5,-0.7,30.30,WSW,252,2.5,3.5,60,0.00,CLR,,0.00,WeatherDisplay:10.37,2013-01-25 07:39:00,
2013-01-25 02:44:00,10.5,-0.7,30.30,WNW,284,1.2,3.5,60,0.00,CLR,,0.00,WeatherDisplay:10.37,2013-01-25 07:44:00,
2013-01-25 02:50:00,10.5,-0.7,30.30,WNW,283,1.2,3.5,60,0.00,CLR,,0.00,WeatherDisplay:10.37,2013-01-25 07:50:00,
2013-01-25 02:55:00,10.5,-0.3,30.30,West,271,1.4,3.5,61,0.00,CLR,,0.00,WeatherDisplay:10.37,2013-01-25 07:55:00,
2013-01-25 03:00:00,10.5,-0.3,30.30,West,271,0.0,0.0,61,0.00,CLR,,0.00,WeatherDisplay:10.37,2013-01-25 08:00:00,
2013-01-25 03:05:00,10.4,-0.4,30.30,West,271,0.4,2.3,61,0.00,CLR,,0.00,WeatherDisplay:10.37,2013-01-25 08:05:00,
2013-01-25 03:11:00,10.2,-0.2,30.30,West,271,0.0,0.0,62,0.00,CLR,,0.00,WeatherDisplay:10.37,2013-01-25 08:11:00,
2013-01-25 03:16:00,10.0,-0.4,30.30,West,271,0.0,1.1,62,0.00,CLR,,0.00,WeatherDisplay:10.37,2013-01-25 08:16:00,
2013-01-25 03:21:00,9.7,-0.4,30.30,West,271,0.0,0.0,63,0.00,CLR,,0.00,WeatherDisplay:10.37,2013-01-25 08:21:00,
2013-01-25 03:26:00,9.5,-0.6,30.30,West,271,0.1,1.1,63,0.00,CLR,,0.00,WeatherDisplay:10.37,2013-01-25 08:26:00,
2013-01-25 03:31:00,9.3,-0.4,30.30,West,271,1.3,3.5,64,0.00,CLR,,0.00,WeatherDisplay:10.37,2013-01-25 08:31:00,
2013-01-25 03:36:00,9.3,-0.4,30.30,West,271,0.0,0.0,64,0.00,CLR,,0.00,WeatherDisplay:10.37,2013-01-25 08:36:00,
2013-01-25 03:42:00,9.2,-0.2,30.30,West,271,0.2,1.1,65,0.00,CLR,,0.00,WeatherDisplay:10.37,2013-01-25 08:42:00,
2013-01-25 03:47:00,8.8,-0.6,30.30,West,271,0.9,1.1,65,0.00,CLR,,0.00,WeatherDisplay:10.37,2013-01-25 08:47:00,
2013-01-25 03:52:00,8.6,-0.1,30.30,West,271,0.0,0.0,67,0.00,CLR,,0.00,WeatherDisplay:10.37,2013-01-25 08:52:00,
2013-01-25 03:57:00,8.6,-0.4,30.30,West,271,0.0,0.0,66,0.00,CLR,,0.00,WeatherDisplay:10.37,2013-01-25 08:57:00,
2013-01-25 04:03:00,8.6,-0.4,30.30,West,271,0.0,0.0,66,0.00,CLR,,0.00,WeatherDisplay:10.37,2013-01-25 09:03:00,
2013-01-25 04:08:00,8.6,-0.4,30.30,West,271,0.0,0.0,66,0.00,CLR,,0.00,WeatherDisplay:10.37,2013-01-25 09:08:00,
2013-01-25 04:13:00,8.4,-0.6,30.30,West,271,0.0,0.0,66,0.00,CLR,,0.00,WeatherDisplay:10.37,2013-01-25 09:13:00,
2013-01-25 04:18:00,8.4,-0.6,30.30,West,271,0.0,0.0,66,0.00,CLR,,0.00,WeatherDisplay:10.37,2013-01-25 09:18:00,
2013-01-25 04:23:00,8.3,-0.4,30.31,West,271,0.0,0.0,67,0.00,CLR,,0.00,WeatherDisplay:10.37,2013-01-25 09:23:00,
2013-01-25 04:29:00,8.3,-0.1,30.31,West,271,0.1,1.0,68,0.00,CLR,,0.00,WeatherDisplay:10.37,2013-01-25 09:29:00,
2013-01-25 04:34:00,8.3,-0.1,30.31,WNW,290,1.0,2.3,68,0.00,CLR,,0.00,WeatherDisplay:10.37,2013-01-25 09:34:00,
2013-01-25 04:39:00,8.4,0.0,30.30,NNW,339,1.7,3.5,68,0.00,CLR,,0.00,WeatherDisplay:10.37,2013-01-25 09:39:00,
2013-01-25 04:45:00,8.8,0.4,30.30,North,9,2.7,3.5,68,0.00,CLR,,0.00,WeatherDisplay:10.37,2013-01-25 09:45:00,
2013-01-25 04:50:00,9.0,0.3,30.30,NNE,19,2.8,4.6,67,0.00,CLR,,0.00,WeatherDisplay:10.37,2013-01-25 09:50:00,
2013-01-25 04:55:00,9.0,0.3,30.30,NNE,27,2.6,4.6,67,0.00,CLR,,0.00,WeatherDisplay:10.37,2013-01-25 09:55:00,
2013-01-25 05:01:00,8.8,0.4,30.30,NE,54,0.0,1.1,68,0.00,CLR,,0.00,WeatherDisplay:10.37,2013-01-25 10:01:00,
2013-01-25 05:06:00,8.8,0.4,30.31,NE,54,0.0,2.0,68,0.00,CLR,,0.00,WeatherDisplay:10.37,2013-01-25 10:06:00,
2013-01-25 05:11:00,8.8,0.7,30.31,NE,54,0.0,0.0,69,0.00,CLR,,0.00,WeatherDisplay:10.37,2013-01-25 10:11:00,
2013-01-25 05:16:00,8.8,0.7,30.31,NE,54,0.1,1.1,69,0.00,CLR,,0.00,WeatherDisplay:10.37,2013-01-25 10:16:00,
2013-01-25 05:22:00,8.6,0.5,30.31,NE,54,0.7,2.3,69,0.00,CLR,,0.00,WeatherDisplay:10.37,2013-01-25 10:22:00,
2013-01-25 05:27:00,8.4,0.3,30.31,NE,54,0.0,0.0,69,0.00,CLR,,0.00,WeatherDisplay:10.37,2013-01-25 10:27:00,
2013-01-25 05:32:00,8.3,0.5,30.31,NE,54,0.0,0.0,70,0.00,CLR,,0.00,WeatherDisplay:10.37,2013-01-25 10:32:00,
2013-01-25 05:38:00,8.1,0.3,30.31,NE,54,0.8,1.1,70,0.00,CLR,,0.00,WeatherDisplay:10.37,2013-01-25 10:38:00,
2013-01-25 05:43:00,8.1,0.6,30.31,NE,54,0.7,1.1,71,0.00,CLR,,0.00,WeatherDisplay:10.37,2013-01-25 10:43:00,
2013-01-25 05:48:00,8.1,0.6,30.31,NNE,13,2.0,3.5,71,0.00,CLR,,0.00,WeatherDisplay:10.37,2013-01-25 10:48:00,
2013-01-25 05:53:00,8.1,0.3,30.32,NNE,13,0.8,2.3,70,0.00,CLR,,0.00,WeatherDisplay:10.37,2013-01-25 10:53:00,
2013-01-25 05:58:00,8.1,0.3,30.31,NNE,19,2.4,3.5,70,0.00,CLR,,0.00,WeatherDisplay:10.37,2013-01-25 10:58:00,
2013-01-25 06:03:00,7.9,0.1,30.31,NNE,26,2.3,3.5,70,0.00,CLR,,0.00,WeatherDisplay:10.37,2013-01-25 11:03:00,
2013-01-25 06:09:00,7.9,0.1,30.31,NNE,32,1.5,4.6,70,0.00,CLR,,0.00,WeatherDisplay:10.37,2013-01-25 11:09:00,
2013-01-25 06:14:00,7.9,0.1,30.31,NNE,32,0.0,0.0,70,0.00,CLR,,0.00,WeatherDisplay:10.37,2013-01-25 11:14:00,
2013-01-25 06:19:00,7.9,0.1,30.32,NNE,32,0.0,0.0,70,0.00,CLR,,0.00,WeatherDisplay:10.37,2013-01-25 11:19:00,
2013-01-25 06:24:00,7.7,-0.1,30.32,NNE,32,0.0,0.0,70,0.00,CLR,,0.00,WeatherDisplay:10.37,2013-01-25 11:24:00,
2013-01-25 06:29:00,7.6,-0.1,30.32,NNE,32,0.0,0.0,70,0.00,CLR,,0.00,WeatherDisplay:10.37,2013-01-25 11:29:00,
2013-01-25 06:35:00,7.4,0.0,30.32,NNE,32,0.0,0.0,71,0.00,CLR,,0.00,WeatherDisplay:10.37,2013-01-25 11:35:00,
2013-01-25 06:40:00,7.2,0.1,30.32,NNE,32,0.0,0.0,72,0.00,CLR,,0.00,WeatherDisplay:10.37,2013-01-25 11:40:00,
2013-01-25 06:45:00,7.2,0.1,30.33,NNE,32,0.0,0.0,72,0.00,CLR,,0.00,WeatherDisplay:10.37,2013-01-25 11:45:00,
2013-01-25 06:50:00,7.2,0.1,30.33,NNE,32,0.0,0.0,72,0.00,CLR,,0.00,WeatherDisplay:10.37,2013-01-25 11:50:00,
2013-01-25 06:56:00,7.2,0.1,30.34,NNE,32,0.0,0.0,72,0.00,CLR,,0.00,WeatherDisplay:10.37,2013-01-25 11:56:00,
2013-01-25 07:01:00,7.2,0.1,30.34,NNE,32,0.0,0.0,72,0.00,CLR,,0.00,WeatherDisplay:10.37,2013-01-25 12:01:00,
2013-01-25 07:06:00,7.0,-0.1,30.34,NNE,32,0.0,0.0,72,0.00,CLR,,0.00,WeatherDisplay:10.37,2013-01-25 12:06:00,
2013-01-25 07:11:00,7.0,0.2,30.34,NNE,32,0.0,0.0,73,0.00,CLR,,0.00,WeatherDisplay:10.37,2013-01-25 12:11:00,
2013-01-25 07:17:00,7.2,0.4,30.33,NNE,32,0.0,0.0,73,0.00,CLR,,0.00,WeatherDisplay:10.37,2013-01-25 12:17:00,
2013-01-25 07:22:00,7.2,0.7,30.33,NNE,32,0.0,0.0,74,0.00,CLR,,0.00,WeatherDisplay:10.37,2013-01-25 12:22:00,
2013-01-25 07:27:00,7.4,1.1,30.34,NNE,32,0.0,0.0,75,0.00,CLR,,0.00,WeatherDisplay:10.37,2013-01-25 12:27:00,
2013-01-25 07:33:00,7.4,1.1,30.33,NNE,32,0.2,1.1,75,0.00,CLR,,0.00,WeatherDisplay:10.37,2013-01-25 12:33:00,
2013-01-25 07:38:00,7.6,1.0,30.33,NNE,32,0.4,3.5,74,0.00,CLR,,0.00,WeatherDisplay:10.37,2013-01-25 12:38:00,
2013-01-25 07:43:00,7.7,0.8,30.34,NNE,32,0.0,0.0,73,0.00,CLR,,0.00,WeatherDisplay:10.37,2013-01-25 12:43:00,
2013-01-25 07:48:00,7.9,0.7,30.34,NNE,32,1.5,2.3,72,0.00,CLR,,0.00,WeatherDisplay:10.37,2013-01-25 12:48:00,
2013-01-25 07:54:00,8.1,0.6,30.33,NNE,32,1.8,2.3,71,0.00,CLR,,0.00,WeatherDisplay:10.37,2013-01-25 12:54:00,
2013-01-25 07:59:00,8.3,0.8,30.33,NNE,32,0.0,1.0,71,0.00,CLR,,0.00,WeatherDisplay:10.37,2013-01-25 12:59:00,
2013-01-25 08:04:00,8.4,0.6,30.33,NNE,28,1.4,2.3,70,0.00,CLR,,0.00,WeatherDisplay:10.37,2013-01-25 13:04:00,
2013-01-25 08:09:00,8.4,0.3,30.33,NNE,28,1.5,3.0,69,0.00,CLR,,0.00,WeatherDisplay:10.37,2013-01-25 13:09:00,
2013-01-25 08:14:00,8.4,0.3,30.33,NE,42,1.5,3.5,69,0.00,CLR,,0.00,WeatherDisplay:10.37,2013-01-25 13:14:00,
2013-01-25 08:19:00,8.6,0.5,30.33,NNE,18,3.1,4.6,69,0.00,CLR,,0.00,WeatherDisplay:10.37,2013-01-25 13:19:00,
2013-01-25 08:25:00,8.6,0.5,30.33,NNE,28,0.0,0.0,69,0.00,CLR,,0.00,WeatherDisplay:10.37,2013-01-25 13:25:00,
2013-01-25 08:30:00,8.8,0.1,30.33,NNE,20,3.3,3.5,67,0.00,CLR,,0.00,WeatherDisplay:10.37,2013-01-25 13:30:00,
2013-01-25 08:35:00,9.0,0.3,30.33,NNE,32,2.7,3.5,67,0.00,CLR,,0.00,WeatherDisplay:10.37,2013-01-25 13:35:00,
2013-01-25 08:41:00,9.2,0.8,30.33,NW,316,0.9,2.3,68,0.00,CLR,,0.00,WeatherDisplay:10.37,2013-01-25 13:41:00,
2013-01-25 08:46:00,9.3,0.5,30.33,North,9,1.4,2.3,67,0.00,CLR,,0.00,WeatherDisplay:10.37,2013-01-25 13:46:00,
2013-01-25 08:51:00,9.5,0.4,30.33,NNE,15,1.2,4.6,66,0.00,CLR,,0.00,WeatherDisplay:10.37,2013-01-25 13:51:00,
2013-01-25 08:56:00,9.5,0.7,30.33,NW,321,1.2,3.5,67,0.00,CLR,,0.00,WeatherDisplay:10.37,2013-01-25 13:56:00,
2013-01-25 09:02:00,9.9,1.1,30.33,NNE,12,0.4,3.0,67,0.00,CLR,,0.00,WeatherDisplay:10.37,2013-01-25 14:02:00,
2013-01-25 09:07:00,10.0,0.6,30.32,NNE,13,1.7,4.6,65,0.00,CLR,,0.00,WeatherDisplay:10.37,2013-01-25 14:07:00,
2013-01-25 09:12:00,10.0,0.6,30.32,NE,46,0.3,1.1,65,0.00,CLR,,0.00,WeatherDisplay:10.37,2013-01-25 14:12:00,
2013-01-25 09:17:00,10.2,0.8,30.33,NNE,22,3.1,3.5,65,0.00,CLR,,0.00,WeatherDisplay:10.37,2013-01-25 14:17:00,
2013-01-25 09:23:00,10.2,0.1,30.33,NE,36,2.2,4.6,63,0.00,CLR,,0.00,WeatherDisplay:10.37,2013-01-25 14:23:00,
2013-01-25 09:28:00,10.4,0.3,30.33,North,9,1.7,3.5,63,0.00,CLR,,0.00,WeatherDisplay:10.37,2013-01-25 14:28:00,
2013-01-25 09:33:00,10.5,0.7,30.33,North,9,0.5,2.3,64,0.00,CLR,,0.00,WeatherDisplay:10.37,2013-01-25 14:33:00,
2013-01-25 09:38:00,10.9,0.8,30.33,NNE,32,1.2,3.5,63,0.00,CLR,,0.00,WeatherDisplay:10.37,2013-01-25 14:38:00,
2013-01-25 09:43:00,11.4,1.2,30.33,NNE,15,1.0,3.5,63,0.00,CLR,,0.00,WeatherDisplay:10.37,2013-01-25 14:43:00,
2013-01-25 09:49:00,11.6,1.1,30.33,North,360,1.0,2.3,62,0.00,CLR,,0.00,WeatherDisplay:10.37,2013-01-25 14:49:00,
2013-01-25 09:54:00,11.7,0.8,30.33,NNE,26,3.3,3.5,61,0.00,CLR,,0.00,WeatherDisplay:10.37,2013-01-25 14:54:00,
2013-01-25 09:59:00,11.9,0.7,30.32,NNE,26,1.1,2.3,60,0.00,CLR,,0.00,WeatherDisplay:10.37,2013-01-25 14:59:00,
2013-01-25 10:04:00,12.3,1.0,30.32,NNE,14,0.1,3.5,60,0.00,CLR,,0.00,WeatherDisplay:10.37,2013-01-25 15:04:00,
2013-01-25 10:10:00,12.8,1.5,30.32,North,360,4.6,6.9,60,0.00,CLR,,0.00,WeatherDisplay:10.37,2013-01-25 15:10:00,
2013-01-25 10:18:00,13.1,1.1,30.32,NNE,19,1.8,4.6,58,0.00,CLR,,0.00,WeatherDisplay:10.37,2013-01-25 15:18:00,
2013-01-25 10:23:00,13.5,1.8,30.32,NW,326,0.6,1.1,59,0.00,CLR,,0.00,WeatherDisplay:10.37,2013-01-25 15:23:00,
2013-01-25 10:28:00,14.0,1.5,30.32,North,5,1.5,3.5,57,0.00,CLR,,0.00,WeatherDisplay:10.37,2013-01-25 15:28:00,
2013-01-25 10:34:00,14.4,2.3,30.32,NNE,22,0.0,0.0,58,0.00,CLR,,0.00,WeatherDisplay:10.37,2013-01-25 15:34:00,
2013-01-25 10:39:00,15.6,1.9,30.33,WNW,290,4.0,5.8,54,0.00,CLR,,0.00,WeatherDisplay:10.37,2013-01-25 15:39:00,
2013-01-25 10:44:00,16.2,1.6,30.33,WNW,289,5.0,6.9,52,0.00,CLR,,0.00,WeatherDisplay:10.37,2013-01-25 15:44:00,
2013-01-25 10:49:00,16.2,1.2,30.32,WNW,301,5.3,6.9,51,0.00,CLR,,0.00,WeatherDisplay:10.37,2013-01-25 15:49:00,
2013-01-25 10:55:00,16.5,1.9,30.32,NW,321,4.0,6.0,52,0.00,CLR,,0.00,WeatherDisplay:10.37,2013-01-25 15:55:00,
2013-01-25 11:00:00,17.0,1.1,30.32,NW,316,1.4,3.5,49,0.00,CLR,,0.00,WeatherDisplay:10.37,2013-01-25 16:00:00,
2013-01-25 11:05:00,17.0,2.0,30.30,NNW,336,2.5,4.6,51,0.00,CLR,,0.00,WeatherDisplay:10.37,2013-01-25 16:05:00,
2013-01-25 11:10:00,16.9,0.6,30.30,North,10,3.9,9.2,48,0.00,CLR,,0.00,WeatherDisplay:10.37,2013-01-25 16:10:00,
2013-01-25 11:15:00,16.7,0.4,30.28,North,5,1.5,3.5,48,0.00,CLR,,0.00,WeatherDisplay:10.37,2013-01-25 16:15:00,
2013-01-25 11:21:00,16.5,0.2,30.28,NW,311,2.0,5.8,48,0.00,CLR,,0.00,WeatherDisplay:10.37,2013-01-25 16:21:00,
2013-01-25 11:26:00,16.5,0.2,30.28,North,360,3.4,9.2,48,0.00,CLR,,0.00,WeatherDisplay:10.37,2013-01-25 16:26:00,
2013-01-25 11:31:00,16.4,0.5,30.27,North,9,1.9,2.3,49,0.00,CLR,,0.00,WeatherDisplay:10.37,2013-01-25 16:31:00,
2013-01-25 11:36:00,16.2,0.8,30.27,WNW,303,3.3,4.6,50,0.00,CLR,,0.00,WeatherDisplay:10.37,2013-01-25 16:36:00,
2013-01-25 11:42:00,16.9,1.4,30.27,NW,304,1.0,2.3,50,0.00,CLR,,0.00,WeatherDisplay:10.37,2013-01-25 16:42:00,
2013-01-25 11:47:00,17.3,0.9,30.26,WNW,303,0.1,1.1,48,0.00,CLR,,0.00,WeatherDisplay:10.37,2013-01-25 16:47:00,
2013-01-25 11:52:00,17.5,0.2,30.26,North,360,1.4,4.6,46,0.00,CLR,,0.00,WeatherDisplay:10.37,2013-01-25 16:52:00,
2013-01-25 11:57:00,17.8,0.5,30.26,NW,323,0.8,2.3,46,0.00,CLR,,0.00,WeatherDisplay:10.37,2013-01-25 16:57:00,
2013-01-25 12:02:00,17.8,-0.5,30.26,WNW,300,4.5,4.6,44,0.00,CLR,,0.00,WeatherDisplay:10.37,2013-01-25 17:02:00,
2013-01-25 12:07:00,18.3,0.0,30.25,North,5,1.5,4.0,44,0.00,CLR,,0.00,WeatherDisplay:10.37,2013-01-25 17:07:00,
2013-01-25 12:12:00,18.1,-0.7,30.24,NE,39,2.3,4.0,43,0.00,CLR,,0.00,WeatherDisplay:10.37,2013-01-25 17:12:00,
2013-01-25 12:18:00,18.1,-1.2,30.24,NNE,28,4.1,5.8,42,0.00,CLR,,0.00,WeatherDisplay:10.37,2013-01-25 17:18:00,
2013-01-25 12:23:00,18.1,-0.7,30.24,NE,34,4.7,6.9,43,0.00,CLR,,0.00,WeatherDisplay:10.37,2013-01-25 17:23:00,
2013-01-25 12:28:00,18.1,-1.2,30.24,NNE,12,4.9,5.8,42,0.00,CLR,,0.00,WeatherDisplay:10.37,2013-01-25 17:28:00,
2013-01-25 12:33:00,18.1,-1.2,30.23,North,355,0.6,0.0,42,0.00,CLR,,0.00,WeatherDisplay:10.37,2013-01-25 17:33:00,
2013-01-25 12:38:00,18.3,-0.5,30.22,NE,44,2.3,6.0,43,0.00,CLR,,0.00,WeatherDisplay:10.37,2013-01-25 17:38:00,
2013-01-25 12:44:00,18.6,-0.7,30.22,ENE,63,2.7,3.5,42,0.00,CLR,,0.00,WeatherDisplay:10.37,2013-01-25 17:44:00,
2013-01-25 12:49:00,19.1,-0.8,30.22,NNE,14,2.2,4.6,41,0.00,CLR,,0.00,WeatherDisplay:10.37,2013-01-25 17:49:00,
2013-01-25 12:54:00,19.2,-0.7,30.22,NNE,30,0.9,3.5,41,0.00,CLR,,0.00,WeatherDisplay:10.37,2013-01-25 17:54:00,
2013-01-25 12:59:00,19.4,-0.5,30.21,NW,317,1.1,2.0,41,0.00,CLR,,0.00,WeatherDisplay:10.37,2013-01-25 17:59:00,
2013-01-25 13:04:00,19.9,0.5,30.21,WNW,303,0.7,3.0,42,0.00,CLR,,0.00,WeatherDisplay:10.37,2013-01-25 18:04:00,
2013-01-25 13:10:00,20.5,0.0,30.21,WNW,294,1.3,3.5,40,0.00,CLR,,0.00,WeatherDisplay:10.37,2013-01-25 18:10:00,
2013-01-25 13:15:00,19.9,-1.1,30.20,NW,317,1.5,3.5,39,0.00,CLR,,0.00,WeatherDisplay:10.37,2013-01-25 18:15:00,
2013-01-25 13:20:00,20.2,-0.3,30.19,NNW,335,1.8,4.0,40,0.00,CLR,,0.00,WeatherDisplay:10.37,2013-01-25 18:20:00,
2013-01-25 13:25:00,20.2,-0.8,30.19,West,278,2.2,3.0,39,0.00,CLR,,0.00,WeatherDisplay:10.37,2013-01-25 18:25:00,
2013-01-25 13:31:00,20.5,-0.6,30.19,North,360,0.0,0.0,39,0.00,CLR,,0.00,WeatherDisplay:10.37,2013-01-25 18:31:00,
2013-01-25 13:36:00,20.5,0.0,30.19,North,355,0.0,0.0,40,0.00,CLR,,0.00,WeatherDisplay:10.37,2013-01-25 18:36:00,
2013-01-25 13:41:00,20.5,-0.6,30.19,NW,320,1.3,3.5,39,0.00,CLR,,0.00,WeatherDisplay:10.37,2013-01-25 18:41:00,
2013-01-25 13:46:00,20.3,-1.3,30.19,NW,321,2.1,3.5,38,0.00,CLR,,0.00,WeatherDisplay:10.37,2013-01-25 18:46:00,
2013-01-25 13:51:00,20.2,-1.4,30.18,NNE,15,3.0,3.5,38,0.00,CLR,,0.00,WeatherDisplay:10.37,2013-01-25 18:51:00,
2013-01-25 13:57:00,20.0,-1.0,30.18,NNE,17,0.0,0.0,39,0.00,CLR,,0.00,WeatherDisplay:10.37,2013-01-25 18:57:00,
2013-01-25 14:02:00,20.2,-1.4,30.17,ENE,60,0.5,2.3,38,0.00,CLR,,0.00,WeatherDisplay:10.37,2013-01-25 19:02:00,
2013-01-25 14:07:00,20.2,-2.0,30.17,NE,42,0.1,3.5,37,0.00,CLR,,0.00,WeatherDisplay:10.37,2013-01-25 19:07:00,
2013-01-25 14:12:00,20.3,-0.8,30.17,North,351,0.2,1.1,39,0.00,CLR,,0.00,WeatherDisplay:10.37,2013-01-25 19:12:00,
2013-01-25 14:17:00,20.5,-1.1,30.17,WNW,296,1.6,3.5,38,0.00,CLR,,0.00,WeatherDisplay:10.37,2013-01-25 19:17:00,
2013-01-25 14:23:00,20.6,-1.6,30.17,WNW,296,0.0,0.0,37,0.00,CLR,,0.00,WeatherDisplay:10.37,2013-01-25 19:23:00,
2013-01-25 14:28:00,20.6,-2.2,30.16,WNW,296,0.2,1.1,36,0.00,CLR,,0.00,WeatherDisplay:10.37,2013-01-25 19:28:00,
2013-01-25 14:33:00,20.5,-2.3,30.16,SSW,200,1.1,3.5,36,0.00,CLR,,0.00,WeatherDisplay:10.37,2013-01-25 19:33:00,
2013-01-25 14:38:00,20.5,-1.7,30.16,SSW,200,0.3,1.0,37,0.00,CLR,,0.00,WeatherDisplay:10.37,2013-01-25 19:38:00,
2013-01-25 14:43:00,20.5,-2.3,30.16,SSW,200,0.0,0.0,36,0.00,CLR,,0.00,WeatherDisplay:10.37,2013-01-25 19:43:00,
2013-01-25 14:49:00,20.6,-1.6,30.15,SSW,200,0.0,0.0,37,0.00,CLR,,0.00,WeatherDisplay:10.37,2013-01-25 19:49:00,
2013-01-25 14:54:00,20.6,-1.6,30.15,SSW,200,0.4,1.1,37,0.00,CLR,,0.00,WeatherDisplay:10.37,2013-01-25 19:54:00,
2013-01-25 15:03:00,20.8,-0.9,30.15,SSW,200,0.0,0.0,38,0.00,CLR,,0.00,WeatherDisplay:10.37,2013-01-25 20:03:00,
2013-01-25 15:08:00,21.1,-1.2,30.15,SSW,200,0.1,2.3,37,0.00,CLR,,0.00,WeatherDisplay:10.37,2013-01-25 20:08:00,
2013-01-25 15:13:00,21.1,-1.2,30.14,East,85,2.0,3.5,37,0.00,CLR,,0.00,WeatherDisplay:10.37,2013-01-25 20:13:00,
2013-01-25 15:18:00,21.3,-1.6,30.14,East,85,0.7,3.5,36,0.00,CLR,,0.00,WeatherDisplay:10.37,2013-01-25 20:18:00,
2013-01-25 15:23:00,21.4,-0.9,30.14,East,85,0.0,1.0,37,0.00,CLR,,0.00,WeatherDisplay:10.37,2013-01-25 20:23:00,
2013-01-25 15:29:00,21.0,-1.8,30.14,East,86,0.3,1.1,36,0.00,CLR,,0.00,WeatherDisplay:10.37,2013-01-25 20:29:00,
2013-01-25 15:34:00,20.6,-1.6,30.14,East,86,0.0,0.0,37,0.00,CLR,,0.00,WeatherDisplay:10.37,2013-01-25 20:34:00,
2013-01-25 15:39:00,20.6,-1.0,30.14,East,86,0.1,1.1,38,0.00,CLR,,0.00,WeatherDisplay:10.37,2013-01-25 20:39:00,
2013-01-25 15:44:00,20.8,-0.9,30.14,East,86,0.0,0.0,38,0.00,CLR,,0.00,WeatherDisplay:10.37,2013-01-25 20:44:00,
2013-01-25 15:49:00,20.6,-1.6,30.14,East,86,0.0,0.0,37,0.00,CLR,,0.00,WeatherDisplay:10.37,2013-01-25 20:49:00,
2013-01-25 15:54:00,20.6,0.1,30.14,South,177,0.0,0.0,40,0.00,CLR,,0.00,WeatherDisplay:10.37,2013-01-25 20:54:00,
2013-01-25 15:59:00,20.5,0.0,30.14,South,177,0.0,0.0,40,0.00,CLR,,0.00,WeatherDisplay:10.37,2013-01-25 20:59:00,
2013-01-25 16:04:00,20.5,0.5,30.14,South,177,0.0,1.1,41,0.00,CLR,,0.00,WeatherDisplay:10.37,2013-01-25 21:04:00,
2013-01-25 16:09:00,20.5,0.0,30.13,South,177,0.0,0.0,40,0.00,CLR,,0.00,WeatherDisplay:10.37,2013-01-25 21:09:00,
2013-01-25 16:14:00,20.5,0.5,30.13,South,177,0.2,1.1,41,0.00,CLR,,0.00,WeatherDisplay:10.37,2013-01-25 21:14:00,
2013-01-25 16:20:00,20.5,0.5,30.13,South,177,0.0,0.0,41,0.00,CLR,,0.00,WeatherDisplay:10.37,2013-01-25 21:20:00,
2013-01-25 16:25:00,20.2,-0.3,30.14,South,177,0.0,0.0,40,0.00,CLR,,0.00,WeatherDisplay:10.37,2013-01-25 21:25:00,
2013-01-25 16:30:00,20.2,0.2,30.13,South,177,0.0,0.0,41,0.00,CLR,,0.00,WeatherDisplay:10.37,2013-01-25 21:30:00,
2013-01-25 16:35:00,20.2,0.2,30.13,South,177,0.0,0.0,41,0.00,CLR,,0.00,WeatherDisplay:10.37,2013-01-25 21:35:00,
2013-01-25 16:40:00,20.0,-0.5,30.13,South,177,0.0,0.0,40,0.00,CLR,,0.00,WeatherDisplay:10.37,2013-01-25 21:40:00,
2013-01-25 16:45:00,20.0,0.0,30.13,South,177,0.0,0.0,41,0.00,CLR,,0.00,WeatherDisplay:10.37,2013-01-25 21:45:00,
2013-01-25 16:51:00,20.0,0.0,30.13,South,177,0.0,0.0,41,0.00,CLR,,0.00,WeatherDisplay:10.37,2013-01-25 21:51:00,
2013-01-25 16:55:00,20.0,0.6,30.11,South,177,0.0,0.0,42,0.00,CLR,,0.00,WeatherDisplay:10.37,2013-01-25 21:55:00,
2013-01-25 17:01:00,20.0,0.0,30.11,South,177,0.0,0.0,41,0.00,CLR,,0.00,WeatherDisplay:10.37,2013-01-25 22:01:00,
2013-01-25 17:06:00,20.0,1.1,30.10,East,86,0.0,0.0,43,0.00,CLR,,0.00,WeatherDisplay:10.37,2013-01-25 22:06:00,
2013-01-25 17:11:00,20.0,1.1,30.10,East,79,1.5,3.5,43,0.00,CLR,,0.00,WeatherDisplay:10.37,2013-01-25 22:11:00,
2013-01-25 17:16:00,20.2,1.2,30.10,NE,54,0.0,1.1,43,0.00,CLR,,0.00,WeatherDisplay:10.37,2013-01-25 22:16:00,
2013-01-25 17:36:00,19.5,0.1,30.10,East,84,0.4,0.0,42,0.00,CLR,,0.00,WeatherDisplay:10.37,2013-01-25 22:36:00,
2013-01-25 17:41:00,19.4,0.5,30.10,East,84,1.0,2.3,43,0.00,CLR,,0.00,WeatherDisplay:10.37,2013-01-25 22:41:00,
2013-01-25 17:46:00,19.4,1.0,30.10,East,90,0.2,2.0,44,0.00,CLR,,0.00,WeatherDisplay:10.37,2013-01-25 22:46:00,
2013-01-25 17:51:00,19.4,0.0,30.09,East,90,0.8,1.1,42,0.00,CLR,,0.00,WeatherDisplay:10.37,2013-01-25 22:51:00,
2013-01-25 17:57:00,19.4,0.5,30.09,East,90,0.0,0.0,43,0.00,CLR,,0.00,WeatherDisplay:10.37,2013-01-25 22:57:00,
2013-01-25 18:02:00,19.2,-0.2,30.09,ESE,107,0.4,2.0,42,0.00,CLR,,0.00,WeatherDisplay:10.37,2013-01-25 23:02:00,
2013-01-25 18:07:00,19.4,1.0,30.09,ESE,107,0.0,0.0,44,0.00,CLR,,0.00,WeatherDisplay:10.37,2013-01-25 23:07:00,
2013-01-25 18:13:00,19.4,0.5,30.08,SE,127,0.0,1.1,43,0.00,CLR,,0.00,WeatherDisplay:10.37,2013-01-25 23:13:00,
2013-01-25 18:18:00,19.4,1.0,30.08,SE,127,0.0,0.0,44,0.00,CLR,,0.00,WeatherDisplay:10.37,2013-01-25 23:18:00,
2013-01-25 18:23:00,19.5,1.1,30.08,SE,127,0.0,0.0,44,0.00,CLR,,0.00,WeatherDisplay:10.37,2013-01-25 23:23:00,
2013-01-25 18:28:00,19.7,1.8,30.08,ESE,102,1.3,2.3,45,0.00,CLR,,0.00,WeatherDisplay:10.37,2013-01-25 23:28:00,
2013-01-25 18:33:00,19.7,1.8,30.08,ESE,102,0.0,0.0,45,0.00,CLR,,0.00,WeatherDisplay:10.37,2013-01-25 23:33:00,
2013-01-25 18:38:00,19.5,1.1,30.08,ESE,102,0.0,0.0,44,0.00,CLR,,0.00,WeatherDisplay:10.37,2013-01-25 23:38:00,
2013-01-25 18:43:00,19.5,2.0,30.08,ESE,102,0.2,1.1,46,0.00,CLR,,0.00,WeatherDisplay:10.37,2013-01-25 23:43:00,
2013-01-25 18:49:00,19.7,2.2,30.07,East,101,0.0,0.0,46,0.00,CLR,,0.00,WeatherDisplay:10.37,2013-01-25 23:49:00,
2013-01-25 18:54:00,19.7,2.2,30.07,East,101,0.1,1.1,46,0.00,CLR,,0.00,WeatherDisplay:10.37,2013-01-25 23:54:00,
2013-01-25 18:59:00,19.7,2.2,30.07,East,101,0.0,0.0,46,0.00,CLR,,0.00,WeatherDisplay:10.37,2013-01-25 23:59:00,
2013-01-25 19:04:00,19.7,2.2,30.07,East,101,0.0,0.0,46,0.00,CLR,,0.00,WeatherDisplay:10.37,2013-01-26 00:04:00,
2013-01-25 19:09:00,19.7,2.7,30.07,East,93,0.0,1.1,47,0.00,CLR,,0.00,WeatherDisplay:10.37,2013-01-26 00:09:00,
2013-01-25 19:14:00,19.5,2.5,30.06,East,93,0.1,1.1,47,0.00,CLR,,0.00,WeatherDisplay:10.37,2013-01-26 00:14:00,
2013-01-25 19:19:00,19.4,2.9,30.06,East,93,0.0,1.1,48,0.00,CLR,,0.00,WeatherDisplay:10.37,2013-01-26 00:19:00,
2013-01-25 19:25:00,19.2,6.1,30.06,East,93,0.0,1.1,56,0.00,CLR,,0.00,WeatherDisplay:10.37,2013-01-26 00:25:00,
2013-01-25 19:46:00,18.4,9.3,30.05,East,93,0.0,0.0,67,0.00,CLR,,0.00,WeatherDisplay:10.37,2013-01-26 00:46:00,
2013-01-25 19:51:00,18.3,9.8,30.05,East,93,0.0,0.0,69,0.00,CLR,,0.00,WeatherDisplay:10.37,2013-01-26 00:51:00,
2013-01-25 19:57:00,18.1,10.3,30.05,East,93,0.0,0.0,71,0.00,CLR,,0.00,WeatherDisplay:10.37,2013-01-26 00:57:00,
2013-01-25 20:02:00,18.1,10.9,30.05,East,93,0.0,0.0,73,0.00,CLR,,0.00,WeatherDisplay:10.37,2013-01-26 01:02:00,
2013-01-25 20:07:00,18.0,11.4,30.05,East,93,0.0,0.0,75,0.00,CLR,,0.00,WeatherDisplay:10.37,2013-01-26 01:07:00,
2013-01-25 20:12:00,17.8,11.5,30.05,East,93,0.1,1.1,76,0.00,CLR,,0.00,WeatherDisplay:10.37,2013-01-26 01:12:00,
2013-01-25 20:18:00,17.8,11.8,30.04,East,93,0.0,0.0,77,0.00,CLR,,0.00,WeatherDisplay:10.37,2013-01-26 01:18:00,
2013-01-25 20:23:00,17.7,11.7,30.04,East,93,0.3,1.1,77,0.00,CLR,,0.00,WeatherDisplay:10.37,2013-01-26 01:23:00,
2013-01-25 20:28:00,17.7,12.0,30.04,East,93,0.0,0.0,78,0.00,CLR,,0.00,WeatherDisplay:10.37,2013-01-26 01:28:00,
2013-01-25 20:33:00,17.5,12.1,30.04,East,93,0.0,0.0,79,0.00,CLR,,0.00,WeatherDisplay:10.37,2013-01-26 01:33:00,
2013-01-25 20:38:00,17.5,12.4,30.04,East,93,0.0,0.0,80,0.00,CLR,,0.00,WeatherDisplay:10.37,2013-01-26 01:38:00,
2013-01-25 20:44:00,17.3,12.5,30.03,East,93,0.0,0.0,81,0.00,CLR,,0.00,WeatherDisplay:10.37,2013-01-26 01:44:00,
2013-01-25 20:49:00,17.3,12.7,30.03,East,93,0.0,0.0,82,0.00,CLR,,0.00,WeatherDisplay:10.37,2013-01-26 01:49:00,
2013-01-25 20:54:00,17.3,12.7,30.03,East,93,0.0,0.0,82,0.00,CLR,,0.00,WeatherDisplay:10.37,2013-01-26 01:54:00,
2013-01-25 20:59:00,17.2,12.9,30.03,East,93,0.0,0.0,83,0.00,CLR,,0.00,WeatherDisplay:10.37,2013-01-26 01:59:00,
2013-01-25 21:04:00,17.2,13.2,30.03,East,93,0.0,0.0,84,0.00,CLR,,0.00,WeatherDisplay:10.37,2013-01-26 02:04:00,
2013-01-25 21:10:00,17.2,13.2,30.02,East,93,0.0,0.0,84,0.00,CLR,,0.00,WeatherDisplay:10.37,2013-01-26 02:10:00,
2013-01-25 21:15:00,17.2,13.5,30.03,East,93,0.0,0.0,85,0.00,CLR,,0.00,WeatherDisplay:10.37,2013-01-26 02:15:00,
2013-01-25 21:20:00,17.0,13.3,30.03,East,93,0.0,0.0,85,0.00,CLR,,0.00,WeatherDisplay:10.37,2013-01-26 02:20:00,
2013-01-25 21:25:00,17.0,13.3,30.03,East,93,0.0,0.0,85,0.00,CLR,,0.00,WeatherDisplay:10.37,2013-01-26 02:25:00,
2013-01-25 21:30:00,16.9,13.2,30.03,East,93,0.0,0.0,85,0.00,CLR,,0.00,WeatherDisplay:10.37,2013-01-26 02:30:00,
2013-01-25 21:35:00,17.0,13.5,30.02,East,93,0.0,0.0,86,0.00,CLR,,0.00,WeatherDisplay:10.37,2013-01-26 02:35:00,
2013-01-25 21:41:00,16.9,13.4,30.02,East,93,0.0,1.1,86,0.00,CLR,,0.00,WeatherDisplay:10.37,2013-01-26 02:41:00,
2013-01-25 21:46:00,17.0,13.5,30.02,East,93,0.3,2.0,86,0.00,CLR,,0.00,WeatherDisplay:10.37,2013-01-26 02:46:00,
2013-01-25 21:51:00,17.0,13.5,30.02,East,93,0.0,0.0,86,0.00,CLR,,0.00,WeatherDisplay:10.37,2013-01-26 02:51:00,
2013-01-25 21:56:00,16.9,13.4,30.01,East,93,0.0,0.0,86,0.00,CLR,,0.00,WeatherDisplay:10.37,2013-01-26 02:56:00,
2013-01-25 22:01:00,16.9,13.4,30.02,East,93,0.0,0.0,86,0.00,CLR,,0.00,WeatherDisplay:10.37,2013-01-26 03:01:00,
2013-01-25 22:07:00,16.9,13.4,30.01,East,93,0.0,0.0,86,0.00,CLR,,0.00,WeatherDisplay:10.37,2013-01-26 03:07:00,
2013-01-25 22:12:00,16.7,13.2,30.01,East,93,0.0,0.0,86,0.00,CLR,,0.00,WeatherDisplay:10.37,2013-01-26 03:12:00,
2013-01-25 22:17:00,16.7,13.2,30.01,East,93,0.0,0.0,86,0.00,CLR,,0.00,WeatherDisplay:10.37,2013-01-26 03:17:00,
2013-01-25 22:22:00,16.5,13.0,30.01,East,93,0.0,0.0,86,0.00,CLR,,0.00,WeatherDisplay:10.37,2013-01-26 03:22:00,
2013-01-25 22:28:00,16.4,12.9,30.01,East,93,0.0,0.0,86,0.00,CLR,,0.00,WeatherDisplay:10.37,2013-01-26 03:28:00,
2013-01-25 22:33:00,16.2,12.7,30.01,East,93,0.0,0.0,86,0.00,CLR,,0.00,WeatherDisplay:10.37,2013-01-26 03:33:00,
2013-01-25 22:38:00,15.9,12.5,30.01,East,93,0.0,0.0,86,0.00,CLR,,0.00,WeatherDisplay:10.37,2013-01-26 03:38:00,
2013-01-25 22:43:00,15.9,12.5,30.01,East,93,0.0,0.0,86,0.00,CLR,,0.00,WeatherDisplay:10.37,2013-01-26 03:43:00,
2013-01-25 22:48:00,15.7,12.3,30.01,East,93,0.0,0.0,86,0.00,CLR,,0.00,WeatherDisplay:10.37,2013-01-26 03:48:00,
2013-01-25 22:54:00,15.6,12.2,30.01,East,93,0.0,0.0,86,0.00,CLR,,0.00,WeatherDisplay:10.37,2013-01-26 03:54:00,
2013-01-25 22:59:00,15.4,12.0,30.01,East,93,0.0,0.0,86,0.00,CLR,,0.00,WeatherDisplay:10.37,2013-01-26 03:59:00,
2013-01-25 23:04:00,15.2,11.8,30.01,East,93,0.0,0.0,86,0.00,CLR,,0.00,WeatherDisplay:10.37,2013-01-26 04:04:00,
2013-01-25 23:09:00,14.9,11.5,30.01,East,93,0.0,0.0,86,0.00,CLR,,0.00,WeatherDisplay:10.37,2013-01-26 04:09:00,
2013-01-25 23:14:00,14.8,11.6,30.01,East,93,0.0,0.0,87,0.00,CLR,,0.00,WeatherDisplay:10.37,2013-01-26 04:14:00,
2013-01-25 23:19:00,14.8,11.6,30.00,East,93,0.0,0.0,87,0.00,CLR,,0.00,WeatherDisplay:10.37,2013-01-26 04:19:00,
2013-01-25 23:25:00,14.8,11.9,30.00,East,93,0.0,0.0,88,0.00,CLR,,0.00,WeatherDisplay:10.37,2013-01-26 04:25:00,
2013-01-25 23:30:00,14.9,12.2,30.00,East,93,0.0,0.0,89,0.00,CLR,,0.00,WeatherDisplay:10.37,2013-01-26 04:30:00,
2013-01-25 23:35:00,15.1,12.4,30.00,East,93,0.0,0.0,89,0.00,CLR,,0.00,WeatherDisplay:10.37,2013-01-26 04:35:00,
2013-01-25 23:40:00,15.1,12.4,30.00,East,93,0.0,0.0,89,0.00,CLR,,0.00,WeatherDisplay:10.37,2013-01-26 04:40:00,
2013-01-25 23:46:00,15.1,12.4,30.00,East,93,0.0,0.0,89,0.00,CLR,,0.00,WeatherDisplay:10.37,2013-01-26 04:46:00,
2013-01-25 23:51:00,15.1,12.4,30.00,East,93,0.0,0.0,89,0.00,CLR,,0.00,WeatherDisplay:10.37,2013-01-26 04:51:00,
2013-01-25 23:56:00,15.1,12.4,30.00,East,93,0.0,0.0,89,0.00,CLR,,0.00,WeatherDisplay:10.37,2013-01-26 04:56:00,